When you browse on this site, cookies collect data to enhance your experience and personalize the content and advertising you see.
Visit our Privacy Policy to learn more. By continuing to use the site, you agree to this use of cookies and data.
  • In Spain
  • List of Countries
  • For 7 days
  • Water Temperature
  • Weather Map
  • Weather Widgets
  • user-avatar
    Login

    Hourly Weather Divasy

    Today, 5 June, Friday

    Time Temperature Precipitation Wind Pressure Humidity
    00:00 +8°C° 0 mm 2 mps 730 mmHg 95%
    01:00 +8°C° 0 mm 2 mps 731 mmHg 96%
    02:00 +7°C° 0 mm 2 mps 731 mmHg 96%
    03:00 +8°C° 0 mm 2 mps 731 mmHg 96%
    04:00 +8°C° 0 mm 2 mps 731 mmHg 97%
    05:00 +8°C° 0 mm 3 mps 730 mmHg 97%
    06:00 +10°C° 0.1 mm 3 mps 731 mmHg 94%
    07:00 +11°C° 0.1 mm 3 mps 731 mmHg 91%
    08:00 +13°C° 0.1 mm 3 mps 731 mmHg 88%
    09:00 +13°C° 0.7 mm 4 mps 731 mmHg 87%
    10:00 +14°C° 0.7 mm 4 mps 731 mmHg 85%
    11:00 +15°C° 0.7 mm 4 mps 731 mmHg 84%
    12:00 +15°C° 0.2 mm 4 mps 732 mmHg 80%
    13:00 +17°C° 0.2 mm 4 mps 732 mmHg 76%
    14:00 +18°C° 0.2 mm 3 mps 732 mmHg 72%
    15:00 +18°C° 0 mm 3 mps 732 mmHg 71%
    16:00 +18°C° 0 mm 3 mps 732 mmHg 70%
    17:00 +18°C° 0 mm 2 mps 732 mmHg 69%
    18:00 +17°C° 0 mm 2 mps 732 mmHg 76%
    19:00 +15°C° 0 mm 2 mps 732 mmHg 83%
    20:00 +14°C° 0 mm 2 mps 733 mmHg 90%
    21:00 +12°C° 0 mm 3 mps 733 mmHg 91%
    22:00 +11°C° 0 mm 3 mps 733 mmHg 92%
    23:00 +11°C° 0 mm 3 mps 733 mmHg 93%

    Tomorrow, 6 June, Saturday

    Time Temperature Precipitation Wind Pressure Humidity
    00:00 +11°C° 0 mm 3 mps 734 mmHg 94%
    01:00 +11°C° 0 mm 3 mps 734 mmHg 95%
    02:00 +11°C° 0 mm 3 mps 734 mmHg 96%
    03:00 +12°C° 0 mm 3 mps 734 mmHg 96%
    04:00 +12°C° 0 mm 4 mps 734 mmHg 96%
    05:00 +13°C° 0 mm 4 mps 734 mmHg 96%
    06:00 +15°C° 0 mm 4 mps 734 mmHg 92%
    07:00 +16°C° 0 mm 5 mps 734 mmHg 88%
    08:00 +19°C° 0 mm 5 mps 734 mmHg 84%
    09:00 +19°C° 0.6 mm 5 mps 734 mmHg 86%
    10:00 +19°C° 0.6 mm 5 mps 734 mmHg 88%
    11:00 +19°C° 0.6 mm 4 mps 734 mmHg 90%
    12:00 +19°C° 0.3 mm 5 mps 735 mmHg 87%
    13:00 +20°C° 0.3 mm 5 mps 735 mmHg 85%
    14:00 +20°C° 0.3 mm 5 mps 735 mmHg 83%
    15:00 +21°C° 0.2 mm 5 mps 735 mmHg 82%
    16:00 +21°C° 0.2 mm 5 mps 736 mmHg 82%
    17:00 +21°C° 0.2 mm 4 mps 736 mmHg 81%
    18:00 +20°C° 0.1 mm 4 mps 736 mmHg 85%
    19:00 +19°C° 0.1 mm 3 mps 737 mmHg 88%
    20:00 +18°C° 0.1 mm 2 mps 737 mmHg 92%
    21:00 +17°C° 0 mm 2 mps 738 mmHg 92%
    22:00 +16°C° 0 mm 2 mps 738 mmHg 93%
    23:00 +15°C° 0 mm 2 mps 739 mmHg 94%

    Day after tomorrow, 7 June, Sunday

    Time Temperature Precipitation Wind Pressure Humidity
    00:00 +14°C° 0 mm 1 mps 739 mmHg 93%
    01:00 +14°C° 0 mm 1 mps 740 mmHg 93%
    02:00 +12°C° 0 mm 0 mps 740 mmHg 92%
    03:00 +13°C° 0 mm 1 mps 740 mmHg 92%
    04:00 +14°C° 0 mm 1 mps 741 mmHg 91%
    05:00 +14°C° 0 mm 1 mps 741 mmHg 91%
    06:00 +16°C° 0 mm 2 mps 741 mmHg 87%
    07:00 +18°C° 0 mm 2 mps 741 mmHg 83%
    08:00 +20°C° 0 mm 2 mps 742 mmHg 79%
    09:00 +21°C° 0 mm 3 mps 742 mmHg 75%
    10:00 +22°C° 0 mm 3 mps 742 mmHg 71%
    11:00 +25°C° 0 mm 3 mps 742 mmHg 67%
    12:00 +25°C° 0.2 mm 3 mps 742 mmHg 69%
    13:00 +25°C° 0.2 mm 3 mps 742 mmHg 70%
    14:00 +25°C° 0.2 mm 3 mps 742 mmHg 72%
    15:00 +25°C° 0.7 mm 3 mps 742 mmHg 76%
    16:00 +25°C° 0.7 mm 3 mps 741 mmHg 80%
    17:00 +24°C° 0.7 mm 3 mps 741 mmHg 85%
    18:00 +22°C° 0.4 mm 3 mps 741 mmHg 87%
    19:00 +22°C° 0.4 mm 3 mps 741 mmHg 90%
    20:00 +21°C° 0.4 mm 3 mps 741 mmHg 93%
    21:00 +20°C° 0 mm 3 mps 741 mmHg 93%
    22:00 +19°C° 0 mm 3 mps 741 mmHg 94%
    23:00 +19°C° 0 mm 3 mps 742 mmHg 95%

    8 June, Monday

    Time Temperature Precipitation Wind Pressure Humidity
    00:00 +18°C° 0 mm 3 mps 742 mmHg 95%
    01:00 +17°C° 0 mm 3 mps 742 mmHg 95%
    02:00 +17°C° 0 mm 2 mps 742 mmHg 95%
    03:00 +17°C° 0 mm 3 mps 742 mmHg 95%
    04:00 +17°C° 0 mm 3 mps 742 mmHg 95%
    05:00 +18°C° 0 mm 3 mps 742 mmHg 95%
    06:00 +19°C° 0 mm 3 mps 742 mmHg 90%
    07:00 +20°C° 0 mm 3 mps 742 mmHg 85%
    08:00 +22°C° 0 mm 3 mps 742 mmHg 80%
    09:00 +24°C° 0 mm 3 mps 742 mmHg 76%
    10:00 +25°C° 0 mm 3 mps 743 mmHg 72%
    11:00 +26°C° 0 mm 3 mps 743 mmHg 68%
    12:00 +27°C° 0.1 mm 3 mps 743 mmHg 67%
    13:00 +27°C° 0.1 mm 4 mps 742 mmHg 66%
    14:00 +27°C° 0.1 mm 4 mps 742 mmHg 65%
    15:00 +27°C° 0.1 mm 3 mps 742 mmHg 67%
    16:00 +27°C° 0.1 mm 3 mps 742 mmHg 70%
    17:00 +27°C° 0.1 mm 3 mps 742 mmHg 72%
    18:00 +25°C° 0 mm 2 mps 742 mmHg 77%
    19:00 +24°C° 0 mm 2 mps 741 mmHg 83%
    20:00 +21°C° 0 mm 2 mps 741 mmHg 88%
    21:00 +20°C° 0 mm 2 mps 742 mmHg 89%
    22:00 +20°C° 0 mm 2 mps 742 mmHg 91%
    23:00 +20°C° 0 mm 1 mps 742 mmHg 92%

    9 June, Tuesday

    Time Temperature Precipitation Wind Pressure Humidity
    00:00 +19°C° 0 mm 2 mps 742 mmHg 93%
    01:00 +18°C° 0 mm 2 mps 742 mmHg 94%
    02:00 +18°C° 0 mm 2 mps 742 mmHg 94%
    03:00 +18°C° 0 mm 2 mps 742 mmHg 94%
    04:00 +18°C° 0 mm 2 mps 742 mmHg 95%
    05:00 +18°C° 0 mm 2 mps 742 mmHg 95%
    06:00 +20°C° 0 mm 2 mps 742 mmHg 90%
    07:00 +22°C° 0 mm 3 mps 743 mmHg 85%
    08:00 +24°C° 0 mm 3 mps 743 mmHg 80%
    09:00 +25°C° 0 mm 3 mps 743 mmHg 75%
    10:00 +26°C° 0 mm 3 mps 743 mmHg 70%
    11:00 +27°C° 0 mm 4 mps 743 mmHg 65%
    12:00 +28°C° 0 mm 4 mps 742 mmHg 64%
    13:00 +28°C° 0 mm 4 mps 742 mmHg 62%
    14:00 +28°C° 0 mm 4 mps 742 mmHg 61%
    15:00 +28°C° 0.1 mm 3 mps 742 mmHg 64%
    16:00 +28°C° 0.1 mm 3 mps 742 mmHg 68%
    17:00 +28°C° 0.1 mm 2 mps 742 mmHg 71%
    18:00 +26°C° 0.1 mm 2 mps 742 mmHg 76%
    19:00 +24°C° 0.1 mm 2 mps 742 mmHg 81%
    20:00 +23°C° 0.1 mm 2 mps 742 mmHg 87%
    21:00 +21°C° 0 mm 2 mps 742 mmHg 89%
    22:00 +20°C° 0 mm 2 mps 742 mmHg 91%
    23:00 +19°C° 0 mm 2 mps 742 mmHg 93%

    10 June, Wednesday

    Time Temperature Precipitation Wind Pressure Humidity
    00:00 +19°C° 0 mm 2 mps 742 mmHg 93%
    01:00 +18°C° 0 mm 2 mps 742 mmHg 94%
    02:00 +18°C° 0 mm 2 mps 742 mmHg 95%
    03:00 +19°C° 0 mm 2 mps 742 mmHg 94%
    04:00 +19°C° 0 mm 2 mps 742 mmHg 94%
    05:00 +19°C° 0 mm 2 mps 742 mmHg 94%
    06:00 +21°C° 0 mm 2 mps 742 mmHg 90%
    07:00 +23°C° 0 mm 2 mps 743 mmHg 86%
    08:00 +25°C° 0 mm 2 mps 743 mmHg 82%
    09:00 +26°C° 0.3 mm 2 mps 743 mmHg 77%
    10:00 +27°C° 0.3 mm 2 mps 743 mmHg 72%
    11:00 +28°C° 0.3 mm 3 mps 743 mmHg 67%
    12:00 +28°C° 0.2 mm 2 mps 743 mmHg 67%
    13:00 +29°C° 0.2 mm 2 mps 742 mmHg 66%
    14:00 +29°C° 0.2 mm 2 mps 742 mmHg 65%
    15:00 +29°C° 0.3 mm 2 mps 742 mmHg 68%
    16:00 +28°C° 0.3 mm 2 mps 742 mmHg 71%
    17:00 +28°C° 0.3 mm 2 mps 742 mmHg 75%
    18:00 +26°C° 0.3 mm 2 mps 742 mmHg 79%
    19:00 +25°C° 0.3 mm 2 mps 742 mmHg 84%
    20:00 +23°C° 0.3 mm 1 mps 742 mmHg 89%
    21:00 +23°C° 0 mm 2 mps 742 mmHg 91%
    22:00 +21°C° 0 mm 2 mps 742 mmHg 92%
    23:00 +20°C° 0 mm 2 mps 743 mmHg 94%
    Show more